Highgate, VT

3:51 AM EST on December 17, 2017 (GMT -0500)
Franklin County State

Weather History for KFSO - November, 2012

Change the Weather History Date:

Tuesday, November 13, 2012

  Actual Average (KPBG) Record (KPBG)
Temperature  
Mean Temperature 44 °F -  
Max Temperature 62 °F 43 °F 63 °F (1964)
Min Temperature 27 °F 29 °F 10 °F (1986)
Degree Days  
Heating Degree Days 20    
Moisture  
Dew Point 31 °F    
Average Humidity 71    
Maximum Humidity 93    
Minimum Humidity 48    
Precipitation  
Precipitation 0.00 in - - ()
Sea Level Pressure  
Sea Level Pressure 30.28 in    
Wind  
Wind Speed 7 mph (West)    
Max Wind Speed 22 mph    
Max Gust Speed 33 mph    
Visibility 9 miles    
Events Rain    
Averages and records for this station are not official NWS values.
T = Trace of Precipitation, MM = Missing Value Source: NWS Daily Summary

Daily Weather History Graph

Daily Weather History Graph

Search for Another Location

Airport or City:

Trip Planner

Search our weather history database for the weather conditions in past years. The results will help you decide how hot, cold, wet, or windy it might be!

Date:

Astronomy

Nov. 13, 2012 Rise Set
Actual Time 6:47 AM EST 4:25 PM EST
Civil Twilight 6:16 AM EST 4:56 PM EST
Nautical Twilight 5:40 AM EST 5:32 PM EST
Astronomical Twilight 5:06 AM EST 6:06 PM EST
Moon 6:22 AM EST (11/13) 4:14 PM EST (11/13)
Length of Visible Light 10h 40m
Length of Day
9h 37m
Waning Crescent, 0% of the Moon is Illuminated
Nov 13
Waning Crescent
Nov 13
New
Nov 20
First Quarter
Nov 28
Full
Dec 6
Last Quarter

Hourly Weather History & Observations

Time (EST) Temp. Windchill Dew Point Humidity Pressure Visibility Wind Dir Wind Speed Gust Speed Precip Events Conditions
12:15 AM 61.9 °F - 48.2 °F 61% 29.94 in 10.0 mi South 21.9 mph 32.2 mph N/A   Scattered Clouds
12:35 AM 61.9 °F - 47.8 °F 60% 29.94 in 10.0 mi South 15.0 mph 31.1 mph N/A   Mostly Cloudy
12:55 AM 62.8 °F - 48.7 °F 60% 29.95 in 10.0 mi South 13.8 mph 33.4 mph N/A Rain Rain
1:15 AM 58.8 °F - 50.7 °F 74% 29.98 in 7.0 mi SW 11.5 mph 26.5 mph N/A Rain Heavy Rain
1:35 AM 53.1 °F - 48.9 °F 86% 30.02 in 7.0 mi West 9.2 mph 18.4 mph N/A Rain Heavy Rain
1:55 AM 51.8 °F - 48.6 °F 89% 30.06 in 5.0 mi West 6.9 mph 21.9 mph N/A Rain Heavy Rain
2:15 AM 49.8 °F - 46.9 °F 90% 30.08 in 4.0 mi WNW 9.2 mph 18.4 mph N/A Rain Rain
2:35 AM 47.5 °F - 45.1 °F 92% 30.08 in 4.0 mi WNW 6.9 mph - N/A Rain Light Rain
2:55 AM 46.8 °F - 44.6 °F 92% 30.08 in 7.0 mi WNW 4.6 mph - N/A Rain Light Rain
3:15 AM 46.8 °F - 44.6 °F 92% 30.11 in 5.0 mi Calm Calm - N/A Rain Rain
3:35 AM 46.8 °F - 44.8 °F 93% 30.13 in 5.0 mi WNW 4.6 mph - N/A Rain Rain
3:55 AM 46.8 °F - 44.8 °F 93% 30.14 in 5.0 mi WNW 5.8 mph - N/A Rain Rain
4:15 AM 46.8 °F - 44.8 °F 93% 30.14 in 7.0 mi WNW 3.5 mph - N/A Rain Light Rain
4:35 AM 46.8 °F - 44.8 °F 93% 30.15 in 10.0 mi WNW 3.5 mph - N/A Rain Light Rain
4:55 AM 46.0 °F 44.8 °F 44.1 °F 93% 30.16 in 5.0 mi West 3.5 mph - N/A Rain Rain
5:15 AM 44.2 °F - 41.9 °F 91% 30.16 in 7.0 mi Calm Calm - N/A Rain Rain
5:35 AM 43.5 °F - 41.4 °F 92% 30.17 in 7.0 mi Calm Calm - N/A Rain Light Rain
5:55 AM 41.9 °F - 39.7 °F 92% 30.17 in 5.0 mi Calm Calm - N/A Rain Rain
6:15 AM 40.6 °F 36.0 °F 38.5 °F 92% 30.19 in 2.5 mi SW 6.9 mph - N/A Rain Rain
6:35 AM 39.4 °F 33.8 °F 36.5 °F 89% 30.20 in 5.0 mi SW 8.1 mph 17.3 mph N/A Rain Rain
6:55 AM 39.4 °F 35.2 °F 36.7 °F 90% 30.19 in 4.0 mi SSW 5.8 mph - N/A Rain Light Rain
7:15 AM 39.4 °F 37.2 °F 36.9 °F 91% 30.20 in 10.0 mi South 3.5 mph - N/A Rain Light Rain
7:55 AM 39.4 °F 36.1 °F 36.7 °F 90% 30.25 in 10.0 mi SW 4.6 mph - N/A   Overcast
8:15 AM 38.5 °F 32.1 °F 32.7 °F 80% 30.25 in 10.0 mi WSW 9.2 mph 16.1 mph N/A   Light Drizzle
8:35 AM 38.3 °F - 32.9 °F 81% 30.24 in 10.0 mi Calm Calm - N/A   Overcast
8:55 AM 38.7 °F 35.2 °F 33.8 °F 83% 30.25 in 10.0 mi West 4.6 mph - N/A   Overcast
9:15 AM 39.2 °F 35.0 °F 31.5 °F 74% 30.26 in 10.0 mi WSW 5.8 mph - N/A   Overcast
9:35 AM 39.4 °F 36.1 °F 28.9 °F 66% 30.27 in 10.0 mi West 4.6 mph 16.1 mph N/A   Overcast
9:55 AM 39.4 °F 34.5 °F 27.1 °F 62% 30.28 in 10.0 mi West 6.9 mph 18.4 mph N/A   Mostly Cloudy
10:15 AM 39.4 °F 35.2 °F 27.5 °F 62% 30.28 in 10.0 mi West 5.8 mph - N/A   Overcast
10:35 AM 40.5 °F 35.8 °F 27.5 °F 60% 30.28 in 10.0 mi West 6.9 mph - N/A   Mostly Cloudy
10:55 AM 40.8 °F 35.6 °F 25.7 °F 55% 30.29 in 10.0 mi West 8.1 mph 16.1 mph N/A   Overcast
11:15 AM 40.6 °F 36.0 °F 25.0 °F 54% 30.29 in 10.0 mi West 6.9 mph 18.4 mph N/A   Scattered Clouds
11:35 AM 40.6 °F 34.8 °F 22.8 °F 49% 30.29 in 10.0 mi West 9.2 mph 18.4 mph N/A   Clear
11:55 AM 42.6 °F 36.8 °F 24.1 °F 48% 30.28 in 10.0 mi WSW 10.4 mph 18.4 mph N/A   Scattered Clouds
12:15 PM 40.6 °F 36.0 °F 22.5 °F 48% 30.29 in 10.0 mi West 6.9 mph 18.4 mph N/A   Mostly Cloudy
12:35 PM 43.2 °F 39.0 °F 24.6 °F 48% 30.29 in 10.0 mi West 6.9 mph - N/A   Overcast
12:55 PM 40.5 °F 34.6 °F 23.5 °F 51% 30.29 in 10.0 mi West 9.2 mph 17.3 mph N/A   Overcast
1:15 PM 39.9 °F 35.1 °F 24.3 °F 54% 30.29 in 10.0 mi WNW 6.9 mph - N/A   Overcast
1:35 PM 43.5 °F 40.1 °F 27.5 °F 53% 30.30 in 10.0 mi WNW 5.8 mph - N/A   Mostly Cloudy
1:55 PM 40.3 °F 34.4 °F 25.7 °F 56% 30.30 in 10.0 mi WNW 9.2 mph - N/A   Overcast
2:15 PM 39.6 °F - 25.7 °F 58% 30.30 in 10.0 mi Calm Calm - N/A   Overcast
2:35 PM 40.1 °F 35.3 °F 22.8 °F 50% 30.30 in 10.0 mi NW 6.9 mph - N/A   Overcast
2:55 PM 40.5 °F 34.6 °F 22.8 °F 49% 30.31 in 10.0 mi WNW 9.2 mph - N/A   Overcast
3:15 PM 39.4 °F 34.5 °F 21.9 °F 50% 30.32 in 10.0 mi West 6.9 mph - N/A   Overcast
3:35 PM 39.4 °F 37.2 °F 25.9 °F 58% 30.33 in 10.0 mi NW 3.5 mph - N/A   Overcast
3:55 PM 38.3 °F 34.8 °F 25.9 °F 61% 30.34 in 10.0 mi WNW 4.6 mph - N/A   Overcast
4:15 PM 37.4 °F 33.8 °F 25.2 °F 61% 30.35 in 10.0 mi NW 4.6 mph - N/A   Scattered Clouds
4:35 PM 36.9 °F - 24.8 °F 62% 30.36 in 10.0 mi Calm Calm - N/A   Clear
4:55 PM 36.9 °F - 25.3 °F 63% 30.37 in 10.0 mi Calm Calm - N/A   Scattered Clouds
5:15 PM 36.3 °F - 24.1 °F 61% 30.37 in 10.0 mi Calm Calm - N/A   Scattered Clouds
5:35 PM 34.7 °F - 22.6 °F 61% 30.38 in 10.0 mi Calm Calm - N/A   Clear
5:55 PM 34.3 °F - 22.3 °F 61% 30.40 in 10.0 mi Calm Calm - N/A   Clear
6:15 PM 34.3 °F - 22.8 °F 63% 30.41 in 10.0 mi Calm Calm - N/A   Clear
6:35 PM 34.3 °F - 21.7 °F 60% 30.41 in 10.0 mi Calm Calm - N/A   Clear
6:55 PM 34.0 °F - 21.9 °F 61% 30.41 in 10.0 mi Calm Calm - N/A   Clear
7:15 PM 33.4 °F - 21.7 °F 62% 30.42 in 10.0 mi Calm Calm - N/A   Clear
7:35 PM 32.0 °F - 22.1 °F 67% 30.43 in 10.0 mi Calm Calm - N/A   Clear
8:15 PM 28.4 °F - 22.6 °F 79% 30.44 in 10.0 mi Calm Calm - N/A   Clear
8:35 PM 27.1 °F - 22.6 °F 83% 30.45 in 10.0 mi Calm Calm - N/A   Clear
8:55 PM 28.8 °F - 23.0 °F 79% 30.46 in 10.0 mi Calm Calm - N/A   Clear
9:15 PM 32.0 °F - 22.5 °F 68% 30.46 in 10.0 mi Calm Calm - N/A   Clear
9:35 PM 32.0 °F - 23.0 °F 69% 30.46 in 10.0 mi Calm Calm - N/A   Clear
9:55 PM 29.7 °F - 22.3 °F 74% 30.47 in 10.0 mi Calm Calm - N/A   Clear
10:15 PM 27.1 °F - 21.7 °F 80% 30.47 in 10.0 mi Calm Calm - N/A   Clear
10:35 PM 29.8 °F - 23.5 °F 77% 30.48 in 10.0 mi Calm Calm - N/A   Clear
10:55 PM 32.0 °F - 23.9 °F 72% 30.48 in 10.0 mi Calm Calm - N/A   Clear
11:15 PM 32.0 °F - 22.1 °F 67% 30.49 in 10.0 mi Calm Calm - N/A   Clear
11:35 PM 32.0 °F 28.7 °F 22.1 °F 67% 30.49 in 10.0 mi NNW 3.5 mph - N/A   Clear
11:55 PM 32.0 °F - 22.6 °F 68% 30.49 in 10.0 mi Calm Calm - N/A   Clear